Location: Buchberg
(46.9333°N, 15.8500°E)
Time: 18:19:02
(UTC+00:00)

Cosmos 1980 Rocket - Pass Details

Date: 14 July 2020
Orbit: 828 x 851 km, 71.0° (Epoch: 05 August)

Event Time Altitude Azimuth Distance (km) Brightness Sun altitude
Rises 01:40:50 0° 331° (NNW) 3,429 5.7 -12.7°
Reaches altitude 10° 01:43:18 10° 330° (NNW) 2,488 4.9 -12.5°
Maximum altitude 01:49:00 74° 246° (WSW) 885 2.2 -11.8°
Drops below altitude 10° 01:54:39 10° 163° (SSE) 2,463 4.3 -11.2°
Sets 01:57:04 0° 161° (SSE) 3,391 5.0 -11.0°
